Regional Weather Roundup
Issued by NWS Bismarck, ND

Home | Current Version | Previous Version | Text Only | Print | Product List | Glossary On
Versions: 1 2 3 4 5 6 7 8 9 10 11 12 13 14 15 16 17 18 19 20 21 22 23 24 25 26 27 28 29 30 31 32 33 34 35 36 37 38 39 40 41 42 43 44 45 46 47 48 49 50
000
ASUS43 KBIS 262310
RWRBIS

NWR BROADCAST TEXT
NATIONAL WEATHER SERVICE BISMARCK ND
600 PM CDT SUN APR 26 2015

NOTE: "FAIR" INDICATES FEW OR NO CLOUDS BELOW 12,000 FEET WITH NO
SIGNIFICANT WEATHER AND/OR OBSTRUCTIONS TO VISIBILITY.


CITY           SKY/WX    TMP DP  RH WIND       PRES   REMARKS
WILLISTON      PTSUNNY   55  35  47 NW9       30.13S
MINOT          CLOUDY    48  45  89 S3        30.12S
MINOT AFB      CLOUDY    50  49  99 S10       30.11R
BISMARCK       CLOUDY    58  47  66 NW10      30.10R
DICKINSON      LGT RAIN  44  41  89 NE8       30.10S
GARRISON         N/A     49  45  86 N5        30.12S
HETTINGER ARPT CLOUDY    48  46  93 N13       30.09R
JAMESTOWN      SUNNY     67  32  27 SE8       30.07S
BEACH          LGT RAIN  45  43  93 NE6       30.14R
CARRINGTON     CLOUDY    63  39  42 W5        30.10S
CROSBY         FAIR      52  36  54 NW6       30.14S
HARVEY           N/A    N/A N/A N/A MISG        N/A
HAZEN          CLOUDY    46  45  93 N5        30.14R FOG
LINTON         FAIR      66  34  30 S8        30.06S
MANDAN         CLOUDY    54  48  82 N10       30.11R
OAKES            N/A     64  32  29 E9G16     30.08S
RUGBY            N/A    N/A N/A N/A NW9       30.12
STANLEY        CLOUDY    55  39  54 CALM      30.12S
WATFORD CITY   CLOUDY    50  37  62 SE6       30.11R
$$

CITY           SKY/WX    TMP DP  RH WIND       PRES   REMARKS
GRAND FORKS    PTSUNNY   69  25  19 SE7       30.09F
GRAND FORKS AF SUNNY     67  26  20 W3        30.10S
DEVILS LAKE    PTSUNNY   61  45  55 NW9       30.10S
FARGO          SUNNY     68  25  19 E9        30.09S
CANDO          CLOUDY    57  48  72 W8        30.12S
CAVALIER       FAIR      66  32  28 S9        30.09S
GRAFTON        FAIR      66  30  26 S7        30.10F
GWINNER        CLEAR     66  32  28 E7        30.10S
LANGDON        MOCLDY    61  45  55 W15       30.11S
ROLLA          MOCLDY    52  52 100 SW13      30.13S
WALHALLA       MOCLDY    66  37  34 W5        30.09S
$$

CITY           SKY/WX    TMP DP  RH WIND       PRES   REMARKS
ABERDEEN       SUNNY     68  34  28 E12       30.06S
MOBRIDGE       MOSUNNY   67  34  29 S10       30.03R
BUFFALO          N/A     48  47  96 NE14      30.00R
RAPID CITY     CLOUDY    51  45  79 CALM      30.03S
GLASGOW        CLOUDY    43  32  65 NW8       30.19R
SIDNEY         CLOUDY    52  34  50 NW9       30.14R
WOLF POINT     CLOUDY    48  36  63 NW9       30.17R
GLENDIVE       CLOUDY    48  34  57 NW15      30.15R
MILES CITY     LGT RAIN  42  38  85 N12       30.15S
BAKER          LGT RAIN  43  40  89 NE8       30.12R
$$

CITY           SKY/WX    TMP DP  RH WIND       PRES   REMARKS
BILLINGS       LGT RAIN  37  35  92 NE14      30.16R
GREAT FALLS    CLOUDY    43  27  53 NW5       30.19R
REGINA         CLOUDY    41  34  75 NW13G21   30.15S
ESTEVAN        CLOUDY    52  34  50 W6        30.13R
$$




USA.gov is the U.S. government's official web portal to all federal, state and local government web resources and services.